Погода в Кхаджурахо

Индия     24°50′50″N   79°55′09″E
темп.,
°C
ветер,
м/с
пор.,
м/с
влажн.,
%
обл.,
%
осадки,
мм/ч
давл.,
гПа
погр.,
м
9 марта, вт
вт923:30+25юз22200 0.0 101124
02:30+23сз11220 0.0 101123
05:30+21ююз22240 0.0 101224
08:30+28ююз22170 0.0 1014201
11:30+37сз14110 0.0 10133464
14:30+38зсз5680 0.0 10094679
17:30+36ссз45923 0.0 1009403
20:30+26зюз121521 0.0 101225
10 марта, ср
ср1023:30+25ю121610 0.0 101224
02:30+23ююз11200 0.0 101123
05:30+21з11230 0.0 101123
08:30+28ю22140 0.0 1014218
11:30+37ююз3590 0.0 10122974
14:30+39з7875 0.0 10084953
17:30+36зсз6887 0.0 10071037
20:30+28з121530 0.0 101024
11 марта, чт
чт1123:30+25зюз221717 0.0 101124
02:30+23сз111833 0.0 101023
05:30+21ююз112226 0.0 101023
08:30+28юз34140 0.0 1013308
11:30+38в1280 0.0 10122609
14:30+39зсз23824 0.0 10094989
17:30+36з12960 0.0 1008139
20:30+30ссв221375 0.0 101024
12 марта, пт
пт1223:30+26юв111562 0.0 101224
02:30+25ю221646 0.0 101124
05:30+26юв231673 0.0 101230
08:30+31ю121293 0.0 1013282
11:30+38ю251157 0.0 10134112
14:30+31сз10112349 0.1 1009608
17:30+31с462363 0.2 1010609
20:30+27вюв122956 0.0 101329
13 марта, сб
сб1323:30+26зсз353170 0.0 1015124
02:30+22ссв363145 0.0 1014135
05:30+22вюв333237 0.1 101448
08:30+29всв362131 0.0 1016436
11:30+35ссв331416 0.0 10151981
14:30+37сз57110 0.0 10113934
17:30+35ссз67110 0.0 10101922
20:30+26с22190 0.0 101225